Regional Weather Roundup
Issued by NWS Charleston, SC

Current Version | Previous Version | Graphics & Text | Print | Product List | Glossary On
Versions: 1 2 3 4 5 6 7 8 9 10 11 12 13 14 15 16 17 18 19 20 21 22 23 24 25 26 27 28 29 30 31 32 33 34 35 36 37 38 39 40 41 42 43 44 45 46 47 48 49 50
000
ASUS42 KCHS 210612
RWRCHS

Regional Weather Roundup
National Weather Service Charleston SC
100 AM EST WED FEB 21 2018

NOTE: "fair" indicates few or no clouds below 12,000 feet with no
significant weather and/or obstructions to visibility.

Not all stations are quality controlled. Use data with caution,
especially dewpoint observations.

SCZ027-030-031-034>040-042>050-210700-
...Southeast South Carolina...

CITY           SKY/WX    TMP DP  RH WIND       PRES   REMARKS
N Charleston   FAIR      66  65  96 SE7       30.42F
6HR MIN TEMP:  65; 6HR MAX TEMP:  70;

Waterfront Prk   N/A     62  62 100 CALM      30.29F
Mount Pleasant FAIR      61  61 100 CALM      30.44S
Johns Island   FOG       64  64 100 CALM      30.43F VSB 1/2
Pinopolis        N/A     66  66 100 CALM      30.34F
Moncks Corner  FAIR      64  64 100 S3        30.42F
Summerville    FAIR      66  64  94 SE3       30.43S
Beaufort MCAS  FAIR      71  68  90 SE10      30.41F
6HR MIN TEMP:  69; 6HR MAX TEMP:  72;

Beaufort Arpt  FAIR      68  64  88 SE6       30.41F
Hilton Head Is FAIR      68  66  94 VRB6      30.42F
Walterboro     FAIR      64  64 100 SE3       30.42F
Allendale      MOCLDY    66  66 100 CALM      30.41S

...Southern Midlands and Pee Dee...

CITY           SKY/WX    TMP DP  RH WIND       PRES   REMARKS
Georgetown     FOG       61  59  94 CALM      30.45F VSB 1/4
Kingstree      FAIR      61  61 100 E3        30.43S FOG
Orangeburg     NOT AVBL
Barnwell         N/A     66  66 100 CALM      30.42S FOG
Aiken          CLOUDY    68  66  94 S9        30.45S
Manning        FAIR      63  63 100 MISG      30.43S
Columbia       MOCLDY    69  67  93 S6        30.41S
6HR MIN TEMP:  69; 6HR MAX TEMP:  76;

Sumter         FAIR      65  63  94 S3        30.41R
6HR MIN TEMP:  65; 6HR MAX TEMP:  73;

Florence       NOT AVBL
Myrtle Beach   FOG       62  61  96 S7        30.47S VSB 1/4
N Myrtle Beach MOCLDY    65  64  97 S5        30.45F FOG
6HR MIN TEMP:  64; 6HR MAX TEMP:  67;


$$

GAZ063-065-086>088-099>101-113>116-118-119-134>141-150-210700-
...Southeast Georgia...

CITY           SKY/WX    TMP DP  RH WIND       PRES   REMARKS
Savannah Arpt  FAIR      69  67  93 SE9       30.40S
6HR MIN TEMP:  68; 6HR MAX TEMP:  71;

Hunter AAF     FAIR      69  67  95 SE8       30.38S
6HR MIN TEMP:  67; 6HR MAX TEMP:  70;

Fort Stewart   FAIR      69  66  92 SE7       30.38S
6HR MIN TEMP:  67; 6HR MAX TEMP:  72;

Statesboro     MOCLDY    67  32  26 CALM      30.41S
Sylvania       FAIR      66  66 100 CALM      30.42S FOG
Claxton        CLOUDY    67  67  98 CALM      30.40S

...CSRA, Central and far Southeast Georgia...

CITY           SKY/WX    TMP DP  RH WIND       PRES   REMARKS
Thomson        CLOUDY    69  65  87 SW13      30.45S
Augusta-Bush   CLOUDY    71  67  87 S8        30.40R
6HR MIN TEMP:  70; 6HR MAX TEMP:  75;

Augusta-Daniel CLOUDY    71  66  84 S8        30.42R
Swainsboro     CLOUDY    72  68  88 S7        30.41S
Vidalia        CLOUDY    70  68  94 SE3       30.40S
Eastman        CLOUDY    72  61  67 S8        30.41R
Hazlehurst     MOCLDY    72  65  79 SE6       30.38S
Alma           NOT AVBL
Waycross       CLOUDY    69  66  90 SE6       30.38S
Jesup          CLOUDY    70  66  88 CALM      30.40S
Baxley         CLOUDY    66  66 100 SE3       30.39S
Brunswick      FAIR      68  64  88 SE9       30.41S
Saint Simons   FAIR      68  67  96 SE10      30.40S
6HR MIN TEMP:  66; 6HR MAX TEMP:  69;


$$

SCZ027-028-034-036>038-045-046-048>050-GAZ119-141-210700-
...Lake and Supplemental Coastal Observations...

STATION/POSITION TIME  TEMP    WIND        PRES    WAVE   SWELL
                       AIR SEA DIR/SP/G            HT/PER HT/PER/DIR
                 (UTC) (F)     (DEG/KT/KT) (MB)    (FT/S) (FT/S/D)
Winyah Bay       0445   64        CALM     1031.0
Lake Murray      0520   65     160/  6/  8 1029.5
ACE Basin NERRS  0445   67     130/  3     1030.0
Fort Pulaski     0542   67 60  160/  5/  9 1030.1F
Sapelo Island    0500   69     140/  7     1030.0

$$

ANZ835-935-AMZ111-154-330-350-352-354-370-450-454-472-210700-
...C-MAN and Buoy Observations...

STATION/POSITION TIME  TEMP    WIND        PRES    WAVE   SWELL
                       AIR SEA DIR/SP/G            HT/PER HT/PER/DIR
                 (UTC) (F)     (DEG/KT/KT) (MB)    (FT/S) (FT/S/D)
Buoy 41004       0550   71 68  140/  6/  8 1030.6F   4/ 7   3/140/ 7
Buoy 41008       0550   62 58  130/  6/  6 1029.4F   3/ 7   3/110/ 7
Folly Beach CMAN 0500   62     120/  7/  7 1031.1F
Capers Nearshore 0508   59 60  140/  6/  8 1030.5F
Fripp Nearshore  0508   59 58  120/  6/  8 1029.4R


STATION/POSITION TIME  TEMP    WIND        PRES    WAVE   SWELL
                       AIR SEA DIR/SP/G            HT/PER HT/PER/DIR
                 (UTC) (F)     (DEG/KT/KT) (MB)    (FT/S) (FT/S/D)
5E St. Marys GA  0600      63                N/A     4/ 6
Frying Pan Buoy  0550   71 70  170/  8/  8 1031.6S   4/ 6   3/130/ 6
Buoy 41025       0550   72 71  190/ 12/ 16 1032.9F   3/11   3/ 70/11
Cape Lookout NC  0500          190/  6/  7 1032.7R
Buoy 41002       0550   72 74  130/ 14/ 17 1032.3F   5/12   3/ 40/12
Buoy 41010       NOT AVBL
St Augustine FL  0600   67 65  140/  4/  4 1029.1F


$$



USA.gov is the U.S. government's official web portal to all federal, state and local government web resources and services.